If you wish to contribute or participate in the discussions about articles you are invited to join SKYbrary as a registered user

 Actions

Abel Santa Maria Airport

From SKYbrary Wiki

MUSC
Airport
ICAO: MUSC – IATA: SNU
Summary
Name Abel Santa Maria Airport
Region South America and Caribbean
Territory Cuba CU.gif
Location Santa Clara, Villa Clara
Serving Santa Clara
Elevation 103.022 m <br />338 ft103.022 m <br />
Coordinates 22° 29' 26.32" N, 79° 56' 40.01" W
Runways
Designator Length Width Surface ROPS
8/26 3017 m9,898.294 ft <br /> 45 m147.638 ft <br /> ASP yes/yes


METAR
Observation MUSC 172050Z 26013KT 9000 SCT025 34/19 Q1012
Station SANTA CLARA
Date/Time 17 April 2021 20:50:00
Wind direction 260°
Wind speed 13 kts
Lowest cloud amount scattered clouds
Temperature 34°C
Dew point 19°C
Humidity 41%
QNH 1012 hPa
Weather condition n/a

BS
Tag(s) Bird Strike
WX
Tag(s) Cumulonimbus
Tropical Revolving Storm

International airport serving Santa Clara, Cuba.

Climatology

Tropical Savanna climate (Köppen climate classification Aw)

Maps

Terrain

Loading map...

Airport Layout

Loading map...


Accidents & Serious Incidents at or in vicinity of MUSC

None on SKYbrary